Terminal Aerodrome Forecast
Issued by NWS

Home | Current Version | Previous Version | Text Only | Print | Product List | Glossary On
Versions: 1 2 3 4 5 6 7 8 9 10 11 12 13 14 15 16 17 18 19 20 21 22 23 24
000
FTUS43 KDMX 250312 AAA
TAFOTM
TAF AMD
KOTM 250312Z 2503/2524 21003KT 1/4SM FG VV003
     FM250500 29005KT P6SM SCT250
     FM251400 34008KT P6SM SKC=

USA.gov is the U.S. government's official web portal to all federal, state and local government web resources and services.